sat.trackr.live / text

‹ back to catalog

STARLINK-34023

NORAD 63875 · 2025-094M

PAYLOAD ACTIVE UNKNOWN

§ Identity

Operator
Country
US
Launch date
2025-05-10
Launch site
AFWTR
Launch vehicle
Mass (kg)
RCS (m²)

Purposes: comms

External: N2YO · Heavens-Above · Gunter

§ Orbital elements

Epoch: 2026-09-20T22:34:14.463552Z

Period
94.14 min
Inclination
69.9990°
Eccentricity
0.0006146
Mean motion
15.29612664 rev/d
Perigee alt
472.8 km
Apogee alt
481.2 km
Semi-major
6,855.1 km
B*
3.7373e-4
RAAN
99.6203°
Arg perigee
302.1390°
Mean anomaly
57.9188°
Rev number
7,650

§ Raw data

STARLINK-340231 63875U 25094M   26263.94044518  .00010645  00000+0  37373-3 0  99942 63875  69.9990  99.6203 0006146 302.1390  57.9188 15.29612664 76505

JSON: /api/v1/satellites/63875 · /tle

For live sub-satellite position, see the globe view (requires WebGL).

§ Visibility from observer

Set your observer location to see the next 7 days of passes ≥ 10°. The values pass through the URL so the page stays shareable.

No JS? Fill the form by hand. The geolocation button needs JavaScript.